Regional Weather Roundup
Issued by NWS

Home | Current Version | Previous Version | Graphics & Text | Print | Product List | Glossary On
Versions: 1 2 3 4 5 6 7 8 9 10 11 12 13 14 15 16 17 18 19 20 21 22 23 24 25 26 27 28 29 30 31 32 33 34 35 36 37 38 39 40 41 42 43 44 45 46 47 48 49 50
000
ASUS43 KOAX 311110
RWRNE

WEATHER ROUNDUP FOR NEBRASKA
NATIONAL WEATHER SERVICE OMAHA NE
600 AM CDT FRI OCT 31 2014

NOTES: SATELLITE DATA IS BEING USED TO AUGMENT CLOUD COVER ABOVE
       12000 FEET.
       "FAIR" INDICATES FEW OR NO CLOUDS BELOW 12,000 FEET WITH NO
       SIGNIFICANT WEATHER AND/OR OBSTRUCTIONS TO VISIBILITY.

  * THESE STATIONS DO NOT REPORT WEATHER SUCH AS RAIN...SNOW OR FOG.

NEZ001>004-019>022-054>056-311200-
NEBRASKA PANHANDLE

CITY           SKY/WX    TMP DP  RH WIND       PRES   REMARKS
SCOTTSBLUFF    PTCLDY    31  29  92 E12       30.41F WCI  22
ALLIANCE       MOCLDY    26  24  92 SE5       30.43S WCI  20
CHADRON        PTCLDY    22  20  92 E7        30.43F FOG     WCI  13
KIMBALL        PTCLDY    29  28  96 S6        30.38S WCI  23
SIDNEY         PTCLDY    25  23  92 S7        30.43S WCI  17
$$

NEZ057>060-069>072-079>082-311200-
SOUTHWEST NEBRASKA

CITY           SKY/WX    TMP DP  RH WIND       PRES   REMARKS
NORTH PLATTE   CLOUDY    31  27  85 NE9       30.50R WCI  23
IMPERIAL       PTCLDY    28  25  88 N5        30.48R WCI  23
LEXINGTON      CLOUDY    33  28  81 NE10      30.51S WCI  24
MCCOOK         CLOUDY    32  29  88 NE10      30.50R WCI  24
OGALLALA       CLOUDY    31  30  96 NE8       30.48R WCI  24
$$

NEZ005>010-023>029-035>040-094-311200-
NORTH CENTRAL NEBRASKA

CITY           SKY/WX    TMP DP  RH WIND       PRES   REMARKS
VALENTINE      CLOUDY    28  22  78 NE7       30.53S WCI  21
AINSWORTH      CLOUDY    27  21  80 NE5       30.53S WCI  21
BROKEN BOW     CLOUDY    30  23  75 NE8       30.51R WCI  22
O`NEILL        PTCLDY    22  20  93 NW3       30.56R
ORD            CLOUDY    30  22  72 NE8       30.54R WCI  22
THEDFORD       CLOUDY    31  27  87 E9        30.51R WCI  22
$$

NEZ041-046>049-061>064-073>077-083>087-311200-
SOUTH CENTRAL NEBRASKA

CITY           SKY/WX    TMP DP  RH WIND       PRES   REMARKS
GRAND ISLAND   CLOUDY    32  22  66 NE14      30.54R WCI  22
AURORA         PTCLDY    29  19  64 N13G22    30.53R WCI  19
HASTINGS       CLOUDY    33  24  69 NE18      30.51R WCI  22
HEBRON         PTCLDY    33  23  68 N16G24    30.51R WCI  22
HOLDREGE       MOCLDY    32  26  77 N16G24    30.50R WCI  21
KEARNEY *      CLOUDY    30  23  74 N14       30.52R WCI  20
YORK           CLEAR     28  21  74 N14       30.53R WCI  17
$$

NEZ011>018-030>034-042>045-311200-
NORTHEAST NEBRASKA

CITY           SKY/WX    TMP DP  RH WIND       PRES   REMARKS
NORFOLK        CLEAR     26  18  71 N9        30.54R WCI  17
ALBION         PTCLDY    26  18  71 N5        30.55R WCI  20
BLAIR          CLEAR     30  22  72 N15       30.49R WCI  19
FREMONT        CLEAR     29  22  73 N10       30.53R WCI  20
TEKAMAH        CLEAR     29  20  69 N14       30.53R WCI  18
WAYNE          CLEAR     26  19  75 N12       30.54R WCI  16
$$

NEZ050>053-065>068-078-088>093-311200-
SOUTHEAST NEBRASKA

CITY           SKY/WX    TMP DP  RH WIND       PRES   REMARKS
LINCOLN        CLEAR     29  20  69 N12       30.53R WCI  19
OMAHA EPPLEY   CLEAR     30  22  72 N15       30.51R WCI  19
BEATRICE       CLOUDY    32  24  72 N13       30.50R WCI  22
FALLS CITY     MOCLDY    33  23  66 N12       30.45R WCI  24
NEBRASKA CITY  CLEAR     31  20  62 N14       30.47R WCI  21
PLATTSMOUTH    CLEAR     31  19  61 N9G21     30.48R WCI  23
$$

NEZ044-045-051>053-067-311200-
OMAHA AREA

CITY           SKY/WX    TMP DP  RH WIND       PRES   REMARKS
OMAHA EPPLEY   CLEAR     30  22  72 N15       30.51R WCI  19
BLAIR          CLEAR     30  22  72 N15       30.49R WCI  19
FREMONT        CLEAR     29  22  73 N10       30.53R WCI  20
MILLARD        CLEAR     31  22  67 NW5       30.51R WCI  27
OFFUTT AFB     CLEAR     31  21  67 N8        30.50R WCI  23
PLATTSMOUTH    CLEAR     31  19  61 N9G21     30.48R WCI  23
WAHOO          FAIR      29  21  72 N10G16    30.52R WCI  19
$$



USA.gov is the U.S. government's official web portal to all federal, state and local government web resources and services.